Showing default

HULIANWANG DIGUI-31, 64284

Orbit data source: Space-Track

HULIANWANG DIGUI-31, 64284 is a payload satellite owned by Zhongguo Xingwang (CN) in LEO that was launched on Thu, 05 Jun 2025 UTC via a CHANG ZHENG 6A launch vehicle from the Taiyaun Space Center, China (TSC). Payload-class satellites include a variety of spacecraft equipped with specific instruments for various scientific and technological missions. These include communications satellites like Starlink; space stations such as the ISS; scientific satellites like the Hubble; Earth observation satellites from companies like Planet Labs, Umbra, and HawkEye 360; GPS; miniature CubeSats for education and research; and military/defense satellites.

Loading next visibility...
Identifier
64284, 2025-121B
Orbit
LEO
Country
Flag of CNCN / PRC
Related business
Manufacturer
SECM
Mission
Operational Civil Communications
Bus & Motor
XINGWANG S, Unknown motor
Mass
~800 kg wet, ~800 kg dry
Launch date (UTC)
2025-06-05 (11 months ago)
Launch vehicle
CHANG ZHENG 6A
Launch site
Taiyaun Space Center, China (TSC)
Object type
Payload
Rocket body
Debris
Shape & HBR
Box + 2 Pan, 5.0 m
Radar Cross Section
5.935 m², Large (>1 m²)

Expand to show TLE details & history
Last TLE update: 9 hours ago

TLE from 9 hours ago
0 HULIANWANG DIGUI-31
1 64284U 25121B   26140.58567386  .00000042  00000-0  63749-4 0  9995
2 64284  86.5033  22.9400 0001661  86.4508 273.6816 13.24411813 46509
Epoch: 2026-05-20T14:03Z
TLE epoch observation values (Epoch: 2026-05-20T14:03:22.221Z)
Latitude
-0.00002°
Longitude
-66.1457°
Altitude
1,170.729 km
Speed
7.268 km/s
True Right ascension
01h 31m 45s
True Declination
0° 00' 00"
Sunlit
Object was in daylight at epoch
Visualization orbit readout
Latitude
Unknown
Longitude
Unknown
Altitude
Unknown
Speed
Unknown
Apparent Right ascension
Unknown
Apparent Declination
Unknown
Sunlit
N/A
Visualization observer readout
Local Sidereal Time
07:44:01
Azimuth
Unknown
Elevation
Unknown
Doppler factor
Unknown
Orbital elements
Apogee altitude
1,166.288 km
Perigee altitude
1,163.782 km
Semi-major axis
7,543.172 km
Eccentricity
0.00017
Inclination
86.5033°
RAAN
22.94°
Arg. of periapsis
86.4508°
True anomaly
273.66261°
Mean anomaly
273.6816°
Eccentric anomaly
273.6721°
Mean motion
3.31293 °/min
Orbital period
108.67 mins
BSTAR
0.000063749
Loading maneuver chart data...
Computing Atmospheric mass density...
Loading historical data...
Loading historical data...
Loading historical data...
Loading historical data...
Loading historical data...
Loading historical data...
Loading historical data...

Documentation

Showing up to 5 results
|